Weather History for KALX - February, 2013

Change the Weather History Date:

Sunday, February 10, 2013

  Actual Average (KAUO) Record (KAUO)
Temperature  
Mean Temperature 52 °F -  
Max Temperature 62 °F - 78 °F (1965)
Min Temperature 42 °F - 9 °F (1971)
Degree Days  
Heating Degree Days 13    
Month to date heating degree days  
Since 1 July heating degree days  
Growing Degree Days 2 (Base 50)    
Moisture  
Dew Point 47 °F    
Average Humidity 71    
Maximum Humidity 90    
Minimum Humidity 45    
Precipitation  
Precipitation 1.61 in - 1.77 in (2001)
Month to date precipitation  
Year to date precipitation  
Sea Level Pressure  
Sea Level Pressure 30.12 in    
Wind  
Wind Speed 4 mph (ESE)    
Max Wind Speed 18 mph    
Max Gust Speed 26 mph    
Visibility 9 miles    
Events Rain , Thunderstorm    
T = Trace of Precipitation, MM = Missing Value Source: NWS Daily Summary

Daily Weather History Graph

Daily Weather History Graph

Search for Another Location

Airport or City:

Trip Planner

Search our weather history database for the weather conditions in past years. The results will help you decide how hot, cold, wet, or windy it might be!

Date:

Astronomy

Feb. 10, 2013 Rise Set
Actual Time 6:31 AM CST 5:24 PM CST
Civil Twilight 6:06 AM CST 5:50 PM CST
Nautical Twilight 5:37 AM CST 6:19 PM CST
Astronomical Twilight 5:08 AM CST 6:48 PM CST
Moon 6:25 AM CST (2/10) 6:09 PM CST (2/10)
Length of Visible Light 11h 44m
Length of Day
10h 53m
New Moon, 0% of the Moon is Illuminated
Feb 10
New Moon
Feb 17
First Quarter
Feb 25
Full
Mar 4
Last Quarter
Mar 11
New

Hourly Weather History & Observations

Time (CST) Temp. Dew Point Humidity Pressure Visibility Wind Dir Wind Speed Gust Speed Precip Events Conditions
12:15 AM 42.3 °F 36.3 °F 79% 30.20 in 10.0 mi Calm Calm - N/A   Clear
12:35 AM 47.3 °F 38.3 °F 71% 30.20 in 10.0 mi Calm Calm - N/A   Clear
12:55 AM 49.6 °F 37.2 °F 62% 30.20 in 10.0 mi SE 4.6 mph - N/A   Clear
1:15 AM 50.0 °F 36.0 °F 59% 30.19 in 10.0 mi ESE 4.6 mph - N/A   Clear
1:35 AM 50.9 °F 36.3 °F 57% 30.20 in 10.0 mi SE 3.5 mph - N/A   Clear
1:55 AM 50.9 °F 36.5 °F 58% 30.19 in 10.0 mi ESE 5.8 mph - N/A   Clear
2:15 AM 50.9 °F 36.1 °F 57% 30.20 in 10.0 mi Calm Calm - N/A   Clear
2:35 AM 50.4 °F 35.8 °F 57% 30.20 in 10.0 mi Calm Calm - N/A   Clear
2:55 AM 49.6 °F 34.9 °F 57% 30.20 in 10.0 mi East 3.5 mph - N/A   Clear
3:15 AM 49.6 °F 36.7 °F 61% 30.20 in 10.0 mi Calm Calm - N/A   Clear
3:55 AM 49.6 °F 36.1 °F 60% 30.21 in 10.0 mi Calm Calm - N/A   Clear
4:15 AM 49.6 °F 39.0 °F 67% 30.21 in 10.0 mi East 3.5 mph - N/A   Clear
4:35 AM 49.6 °F 36.9 °F 61% 30.20 in 10.0 mi East 3.5 mph - N/A   Clear
4:55 AM 49.6 °F 36.1 °F 60% 30.20 in 10.0 mi Calm Calm - N/A   Clear
5:15 AM 49.6 °F 35.4 °F 58% 30.20 in 10.0 mi ESE 3.5 mph - N/A   Clear
5:35 AM 49.6 °F 33.8 °F 54% 30.19 in 10.0 mi ESE 5.8 mph - N/A   Clear
5:55 AM 49.6 °F 32.2 °F 51% 30.20 in 10.0 mi ESE 4.6 mph - N/A   Clear
6:15 AM 49.6 °F 31.5 °F 50% 30.19 in 10.0 mi ESE 6.9 mph - N/A   Clear
6:35 AM 49.6 °F 30.6 °F 48% 30.18 in 10.0 mi ESE 5.8 mph - N/A   Clear
6:55 AM 49.6 °F 29.8 °F 47% 30.20 in 10.0 mi East 4.6 mph - N/A   Clear
7:15 AM 49.6 °F 29.3 °F 46% 30.20 in 10.0 mi East 5.8 mph - N/A   Clear
7:35 AM 51.3 °F 30.7 °F 45% 30.20 in 10.0 mi East 4.6 mph - N/A   Clear
7:55 AM 52.2 °F 32.0 °F 46% 30.19 in 10.0 mi ESE 8.1 mph - N/A   Scattered Clouds
8:15 AM 54.7 °F 35.4 °F 48% 30.19 in 10.0 mi ESE 6.9 mph - N/A   Scattered Clouds
8:35 AM 57.2 °F 39.9 °F 52% 30.19 in 10.0 mi SE 10.4 mph 19.6 mph N/A   Mostly Cloudy
8:55 AM 59.9 °F 42.8 °F 53% 30.19 in 10.0 mi SE 8.1 mph - N/A   Scattered Clouds
9:15 AM 59.9 °F 44.1 °F 56% 30.18 in 10.0 mi SE 11.5 mph 19.6 mph N/A   Scattered Clouds
9:35 AM 59.9 °F 44.2 °F 56% 30.18 in 10.0 mi SE 8.1 mph 18.4 mph N/A   Mostly Cloudy
9:55 AM 59.9 °F 45.0 °F 58% 30.19 in 10.0 mi SE 9.2 mph 19.6 mph N/A   Mostly Cloudy
10:15 AM 59.9 °F 45.1 °F 58% 30.18 in 10.0 mi SSE 11.5 mph 16.1 mph N/A   Overcast
10:35 AM 59.9 °F 45.1 °F 58% 30.17 in 10.0 mi SE 8.1 mph - N/A Thunderstorm Mostly Cloudy
10:55 AM 60.1 °F 45.7 °F 59% 30.16 in 10.0 mi SE 8.1 mph - N/A   Mostly Cloudy
11:15 AM 61.0 °F 46.9 °F 60% 30.16 in 10.0 mi SE 8.1 mph 16.1 mph N/A   Mostly Cloudy
11:35 AM 61.0 °F 47.7 °F 62% 30.13 in 10.0 mi SE 8.1 mph 17.3 mph N/A   Mostly Cloudy
11:55 AM 61.0 °F 48.0 °F 62% 30.12 in 10.0 mi SSE 8.1 mph - N/A   Mostly Cloudy
12:15 PM 60.3 °F 49.5 °F 68% 30.09 in 10.0 mi SE 10.4 mph - N/A Rain , Thunderstorm Light Thunderstorms and Rain
12:35 PM 61.0 °F 49.3 °F 65% 30.09 in 10.0 mi SE 9.2 mph - N/A Rain Light Rain
12:55 PM 59.9 °F 52.3 °F 76% 30.07 in 10.0 mi SE 4.6 mph - 0.01 in Rain Light Rain
1:15 PM 61.0 °F 52.7 °F 74% 30.06 in 10.0 mi SE 3.5 mph - N/A   Overcast
1:35 PM 61.7 °F 52.2 °F 71% 30.04 in 10.0 mi ESE 8.1 mph - N/A Thunderstorm Mostly Cloudy
1:55 PM 62.6 °F 51.8 °F 68% 30.05 in 10.0 mi SSE 6.9 mph 16.1 mph N/A   Mostly Cloudy
2:15 PM 61.5 °F 54.1 °F 77% 30.02 in 7.0 mi SSE 9.2 mph - 0.01 in Rain Light Rain
2:35 PM 61.0 °F 54.7 °F 80% 30.02 in 10.0 mi SSE 6.9 mph - 0.01 in   Light Drizzle
2:55 PM 61.3 °F 54.9 °F 79% 30.01 in 10.0 mi SSE 4.6 mph - 0.01 in   Light Drizzle
3:15 PM 62.2 °F 55.6 °F 79% 30.01 in 10.0 mi SSE 5.8 mph - N/A   Overcast
3:35 PM 62.2 °F 55.0 °F 77% 29.99 in 10.0 mi SSE 6.9 mph - N/A Rain Light Rain
3:55 PM 62.6 °F 55.4 °F 77% 29.98 in 10.0 mi SSE 5.8 mph - N/A Rain Light Rain
4:15 PM 62.2 °F 56.7 °F 82% 29.99 in 7.0 mi South 5.8 mph - 0.02 in Rain Rain
4:35 PM 59.9 °F 55.4 °F 85% 30.06 in 1.8 mi WNW 18.4 mph 26.5 mph 0.23 in Rain , Thunderstorm Heavy Thunderstorms and Rain
4:55 PM 59.9 °F 55.9 °F 87% 30.09 in 1.5 mi WNW 5.8 mph - 0.53 in Rain , Thunderstorm Thunderstorms and Rain
5:15 PM 59.9 °F 56.3 °F 88% 30.07 in 7.0 mi NNW 8.1 mph - 0.07 in Rain , Thunderstorm Thunderstorms and Rain
5:35 PM 59.9 °F 56.3 °F 88% 30.08 in 7.0 mi NE 3.5 mph - 0.12 in Rain , Thunderstorm Rain
5:55 PM 59.9 °F 56.5 °F 88% 30.10 in 4.0 mi Calm Calm - 0.21 in Rain , Thunderstorm Rain
6:15 PM 57.9 °F 54.5 °F 88% 30.10 in 3.0 mi NNE 4.6 mph - 0.10 in Rain Heavy Rain
6:35 PM 57.7 °F 54.7 °F 90% 30.10 in 4.0 mi Calm Calm - 0.20 in Rain Heavy Rain
6:55 PM 57.7 °F 54.7 °F 90% 30.10 in 4.0 mi ENE 3.5 mph - 0.30 in Rain Heavy Rain
7:15 PM 57.7 °F 54.7 °F 90% 30.12 in 4.0 mi Calm Calm - 0.08 in Rain , Thunderstorm Heavy Thunderstorms and Rain
7:35 PM 57.4 °F 54.3 °F 90% 30.10 in 4.0 mi East 4.6 mph - 0.17 in Rain Rain
7:55 PM 58.6 °F 55.6 °F 90% 30.09 in 7.0 mi East 6.9 mph - 0.23 in Rain , Thunderstorm Light Thunderstorms and Rain
8:15 PM 58.1 °F 55.0 °F 90% 30.08 in 7.0 mi East 6.9 mph - 0.07 in Rain Rain
8:35 PM 58.8 °F 55.8 °F 90% 30.07 in 10.0 mi East 5.8 mph - N/A Rain Light Rain
8:55 PM 58.3 °F 55.2 °F 90% 30.07 in 10.0 mi East 4.6 mph - 0.11 in Rain Light Rain
9:15 PM 59.9 °F 56.7 °F 89% 30.05 in 10.0 mi ENE 4.6 mph - 0.02 in Rain Rain
9:35 PM 59.9 °F 56.7 °F 89% 30.07 in 10.0 mi SSE 6.9 mph - 0.03 in Rain Light Rain
9:55 PM 59.9 °F 56.7 °F 89% 30.06 in 5.0 mi East 4.6 mph - N/A Rain Rain
10:15 PM 59.9 °F 56.7 °F 89% 30.07 in 10.0 mi ESE 5.8 mph - 0.04 in Rain Rain
10:35 PM 59.7 °F 56.5 °F 89% 30.08 in 7.0 mi SSE 4.6 mph - 0.10 in Rain Rain
10:55 PM 57.7 °F 54.7 °F 90% 30.05 in 7.0 mi ESE 8.1 mph - 0.17 in Rain Rain
11:15 PM 58.1 °F 55.0 °F 90% 30.06 in 10.0 mi SE 3.5 mph - 0.01 in   Drizzle
11:35 PM 58.8 °F 55.8 °F 90% 30.05 in 10.0 mi SE 4.6 mph - 0.01 in Rain Light Rain
11:55 PM 59.9 °F 56.7 °F 89% 30.05 in 10.0 mi ESE 4.6 mph - N/A Rain Light Rain